Starlink 3135

operational
NORAD ID: 49424 Int'l Des: 2021-104 Owner: SPXS Country: US Constellation: starlink
LEOCIRCULAR

关于 Starlink 3135

正在加载描述...

实时位置

正在加载3D地球...

即将过境

高度历史

Altitude vs Time

uPlot chart will show altitude changes over time

两行轨道根数

1 49424U 21104S 25303.85930821 -.00000326 00000-0 -23809-5 0 9990
2 49424 53.2167 91.9493 0001372 80.7611 279.3536 15.08834122219023
Epoch: Oct 30, 2025 • Age: 9 hours

当前状态

高度 551.6 km
速度 7.59 km/s
星下点 -35.34°S, 70.79°W
发射日期 Nov 13, 2021
运行时间 3.9 years
类型 internet

技术详情

分类 Payload
质量 290.00 kg
干质量 270.00 kg
总质量 290.00 kg
长度 0.20 m
直径 2.80 m
跨度 9.00 m
形状 Box + pan
制造商 SPXS
平台类型 Starlink
阶段状态 In Orbit
所有者/国家 SPXS/US

大型星座

Loading constellations...